Powrót do katalogu

DELTA 2 R/B(1)

AktywnyLEO
NORAD 21891·ROCKET BODY·🇺🇸 United States

Wystrzelony Feb 23, 1992 z Cape Canaveral Space Force Station

Loading…

Następne Przeloty (najbliższe 24 godziny)

TLE

ŚwieżeSource: Space-Track

Epoka: Sep 14, 2026, 15:42 UTC

1 21891U 92009B   26257.65482451  .00001980  00000-0  13818-3 0  9990
2 21891  19.9946 249.4940 0037678 185.1983 174.8048 14.94118506848189

Śledź DELTA 2 R/B(1) w czasie rzeczywistym z AllMySat

Download on the App Store